| time (UTC) | temp C | wind direction | speed KPH | gust KPH | rain 1hr cm | rain 24hr cm | rain mn cm | humidity % | barometer mb |
| 20260901202005 | 33 | 211 | 9.7 | 14.5 | 0.00 | 0.00 | 0.00 | 60 | 1014.8 |
| 20260901201505 | 33 | 211 | 9.7 | 14.5 | 0.00 | 0.00 | 0.00 | 62 | 1014.9 |
| 20260901201005 | 33 | 187 | 8.0 | 16.1 | 0.00 | 0.00 | 0.00 | 63 | 1014.9 |
| 20260901200005 | 33 | 208 | 6.4 | 9.7 | 0.00 | 0.00 | 0.00 | 65 | 1014.9 |
| 20260901195005 | 33 | 174 | 6.4 | 12.9 | 0.00 | 0.00 | 0.00 | 62 | 1014.9 |
| 20260901193505 | 33 | 174 | 9.7 | 16.1 | 0.00 | 0.00 | 0.00 | 61 | 1014.9 |
| 20260901193005 | 33 | 205 | 8.0 | 12.9 | 0.00 | 0.00 | 0.00 | 62 | 1015.0 |
| 20260901191504 | 33 | 186 | 4.8 | 16.1 | 0.00 | 0.00 | 0.00 | 63 | 1015.1 |
| 20260901190505 | 34 | 201 | 6.4 | 14.5 | 0.00 | 0.00 | 0.00 | 66 | 1015.0 |
| 20260901185505 | 33 | 196 | 8.0 | 16.1 | 0.00 | 0.00 | 0.00 | 67 | 1015.2 |
| 20260901185006 | 33 | 208 | 6.4 | 14.5 | 0.00 | 0.00 | 0.00 | 64 | 1015.3 |
| 20260901184005 | 33 | 186 | 8.0 | 14.5 | 0.00 | 0.00 | 0.00 | 66 | 1015.3 |
| 20260901183505 | 33 | 191 | 8.0 | 14.5 | 0.00 | 0.00 | 0.00 | 64 | 1015.3 |
| 20260901182505 | 33 | 212 | 8.0 | 11.3 | 0.00 | 0.00 | 0.00 | 67 | 1015.4 |
| 20260901182005 | 33 | 234 | 4.8 | 11.3 | 0.00 | 0.00 | 0.00 | 67 | 1015.4 |
| 20260901181005 | 33 | 224 | 8.0 | 11.3 | 0.00 | 0.00 | 0.00 | 71 | 1015.4 |
| 20260901180505 | 33 | 206 | 6.4 | 14.5 | 0.00 | 0.00 | 0.00 | 69 | 1015.4 |
| 20260901175005 | 32 | 228 | 8.0 | 11.3 | 0.00 | 0.00 | 0.00 | 67 | 1015.6 |
| 20260901174504 | 32 | 209 | 9.7 | 12.9 | 0.00 | 0.00 | 0.00 | 71 | 1015.7 |
| 20260901174006 | 32 | 183 | 8.0 | 16.1 | 0.00 | 0.00 | 0.00 | 69 | 1015.8 |
| 20260901173504 | 32 | 192 | 9.7 | 14.5 | 0.00 | 0.00 | 0.00 | 68 | 1015.9 |
| 20260901173005 | 32 | 183 | 9.7 | 14.5 | 0.00 | 0.00 | 0.00 | 69 | 1016.0 |
| 20260901172504 | 32 | 172 | 8.0 | 12.9 | 0.00 | 0.00 | 0.00 | 69 | 1015.9 |
| 20260901172005 | 32 | 185 | 6.4 | 11.3 | 0.00 | 0.00 | 0.00 | 70 | 1015.9 |
| 20260901171005 | 32 | 214 | 8.0 | 12.9 | 0.00 | 0.00 | 0.00 | 68 | 1015.9 |
| 20260901170004 | 32 | 235 | 4.8 | 11.3 | 0.00 | 0.00 | 0.00 | 71 | 1015.9 |
| 20260901165005 | 32 | 187 | 4.8 | 14.5 | 0.00 | 0.00 | 0.00 | 72 | 1015.9 |
| 20260901163506 | 32 | 220 | 6.4 | 12.9 | 0.00 | 0.00 | 0.00 | 71 | 1015.8 |
| 20260901163005 | 31 | 173 | 8.0 | 12.9 | 0.00 | 0.00 | 0.00 | 74 | 1015.8 |
| 20260901162005 | 32 | 186 | 8.0 | 11.3 | 0.00 | 0.00 | 0.00 | 75 | 1016.0 |
| 20260901161504 | 31 | 172 | 4.8 | 12.9 | 0.00 | 0.00 | 0.00 | 75 | 1016.0 |
| 20260901161017 | 31 | 184 | 6.4 | 12.9 | 0.00 | 0.00 | 0.00 | 75 | 1016.0 |
| 20260901155505 | 31 | 210 | 3.2 | 9.7 | 0.00 | 0.00 | 0.00 | 79 | 1015.9 |
| 20260901155005 | 31 | 157 | 4.8 | 11.3 | 0.00 | 0.00 | 0.00 | 80 | 1016.0 |
| 20260901154505 | 30 | 147 | 4.8 | 9.7 | 0.00 | 0.00 | 0.00 | 83 | 1015.9 |
| 20260901154005 | 29 | 158 | 3.2 | 8.0 | 0.00 | 0.00 | 0.00 | 83 | 1015.9 |
| 20260901153504 | 29 | 172 | 8.0 | 12.9 | 0.00 | 0.00 | 0.00 | 83 | 1015.9 |
| 20260901153004 | 29 | 199 | 3.2 | 8.0 | 0.00 | 0.00 | 0.00 | 84 | 1016.0 |
| 20260901152505 | 29 | 199 | 6.4 | 11.3 | 0.00 | 0.00 | 0.00 | 85 | 1015.9 |
| 20260901151004 | 29 | 150 | 3.2 | 8.0 | 0.00 | 0.00 | 0.00 | 84 | 1015.9 |
| 20260901150504 | 28 | 158 | 4.8 | 8.0 | 0.00 | 0.00 | 0.00 | 86 | 1015.9 |
| 20260901145005 | 27 | 129 | 1.6 | 4.8 | 0.00 | 0.00 | 0.00 | 88 | 1016.0 |
| 20260901143504 | 26 | 163 | 4.8 | 8.0 | 0.00 | 0.00 | 0.00 | 90 | 1016.1 |
| 20260901143004 | 26 | 136 | 3.2 | 4.8 | 0.00 | 0.00 | 0.00 | 89 | 1016.0 |
| 20260901142005 | 25 | 194 | 3.2 | 4.8 | 0.00 | 0.00 | 0.00 | 91 | 1016.4 |
| 20260901141505 | 25 | 185 | 1.6 | 4.8 | 0.00 | 0.00 | 0.00 | 93 | 1016.2 |
| 20260901140504 | 25 | 279 | 0.0 | 3.2 | 0.00 | 0.00 | 0.00 | 92 | 1016.5 |
| 20260901134004 | 23 | 192 | 1.6 | 3.2 | 0.00 | 0.00 | 0.00 | 96 | 1016.7 |
| 20260901133505 | 23 | 184 | 1.6 | 4.8 | 0.00 | 0.00 | 0.00 | 96 | 1016.8 |
| 20260901132505 | 23 | 77 | 1.6 | 3.2 | 0.00 | 0.00 | 0.00 | 96 | 1016.7 |
| 20260901131505 | 22 | 50 | 0.0 | 1.6 | 0.00 | 0.00 | 0.00 | 95 | 1016.6 |
| 20260901131005 | 21 | 0 | 0.0 | 0.0 | 0.00 | 0.00 | 0.00 | 95 | 1016.6 |
| 20260901130505 | 21 | 0 | 0.0 | 0.0 | 0.00 | 0.00 | 0.00 | 95 | 1016.7 |
| 20260901125506 | 21 | 0 | 0.0 | 0.0 | 0.00 | 0.00 | 0.00 | 95 | 1016.6 |
| 20260901124505 | 21 | 0 | 0.0 | 0.0 | 0.00 | 0.00 | 0.00 | 95 | 1016.4 |
| 20260901123504 | 21 | 0 | 0.0 | 0.0 | 0.00 | 0.00 | 0.00 | 95 | 1016.4 |
| 20260901123005 | 21 | 0 | 0.0 | 0.0 | 0.00 | 0.00 | 0.00 | 95 | 1016.4 |
| 20260901122005 | 21 | 0 | 0.0 | 0.0 | 0.00 | 0.00 | 0.00 | 95 | 1016.3 |
| 20260901121504 | 21 | 0 | 0.0 | 0.0 | 0.00 | 0.00 | 0.00 | 95 | 1016.4 |
| 20260901120004 | 21 | 0 | 0.0 | 0.0 | 0.00 | 0.00 | 0.00 | 95 | 1016.3 |
| 20260901115505 | 21 | 0 | 0.0 | 0.0 | 0.00 | 0.00 | 0.00 | 95 | 1016.2 |
| 20260901112504 | 21 | 0 | 0.0 | 0.0 | 0.00 | 0.00 | 0.00 | 95 | 1015.7 |
| 20260901112004 | 21 | 0 | 0.0 | 3.2 | 0.00 | 0.00 | 0.00 | 95 | 1015.8 |
| 20260901111504 | 21 | 176 | 3.2 | 3.2 | 0.00 | 0.00 | 0.00 | 95 | 1015.9 |
| 20260901111004 | 21 | 176 | 3.2 | 3.2 | 0.00 | 0.00 | 0.00 | 95 | 1015.8 |
| 20260901104504 | 21 | 243 | 1.6 | 3.2 | 0.00 | 0.00 | 0.00 | 95 | 1015.5 |
| 20260901103004 | 21 | 243 | 1.6 | 3.2 | 0.00 | 0.00 | 0.00 | 95 | 1015.4 |
| 20260901102504 | 21 | 243 | 0.0 | 0.0 | 0.00 | 0.00 | 0.00 | 95 | 1015.4 |
| 20260901102004 | 21 | 243 | 0.0 | 0.0 | 0.00 | 0.00 | 0.00 | 95 | 1015.3 |
| 20260901101004 | 22 | 243 | 1.6 | 3.2 | 0.00 | 0.00 | 0.00 | 95 | 1015.2 |
| 20260901095005 | 22 | 243 | 0.0 | 1.6 | 0.00 | 0.00 | 0.00 | 95 | 1015.4 |
| 20260901094004 | 22 | 243 | 0.0 | 3.2 | 0.00 | 0.00 | 0.00 | 95 | 1015.2 |
| 20260901093504 | 22 | 243 | 0.0 | 1.6 | 0.00 | 0.00 | 0.00 | 95 | 1015.1 |
| 20260901092004 | 22 | 243 | 1.6 | 1.6 | 0.00 | 0.00 | 0.00 | 95 | 1015.2 |
| 20260901090504 | 22 | 243 | 1.6 | 3.2 | 0.00 | 0.00 | 0.00 | 94 | 1015.3 |
| 20260901085504 | 22 | 243 | 3.2 | 3.2 | 0.00 | 0.00 | 0.00 | 95 | 1015.3 |
| 20260901085004 | 22 | 243 | 3.2 | 3.2 | 0.00 | 0.00 | 0.00 | 95 | 1015.3 |
| 20260901084504 | 22 | 243 | 1.6 | 3.2 | 0.00 | 0.00 | 0.00 | 95 | 1015.2 |
| 20260901083504 | 22 | 243 | 0.0 | 0.0 | 0.00 | 0.00 | 0.00 | 94 | 1015.2 |
| 20260901082504 | 22 | 243 | 0.0 | 0.0 | 0.00 | 0.00 | 0.00 | 94 | 1015.1 |
| 20260901080004 | 23 | 243 | 0.0 | 1.6 | 0.00 | 0.00 | 0.00 | 94 | 1015.4 |
| 20260901073004 | 22 | 242 | 1.6 | 3.2 | 0.00 | 0.00 | 0.00 | 94 | 1015.4 |
| 20260901072504 | 23 | 243 | 1.6 | 1.6 | 0.00 | 0.00 | 0.00 | 94 | 1015.3 |
| 20260901071503 | 23 | 243 | 1.6 | 1.6 | 0.00 | 0.00 | 0.00 | 94 | 1015.3 |
| 20260901070504 | 23 | 243 | 1.6 | 1.6 | 0.00 | 0.00 | 0.00 | 94 | 1015.3 |
| 20260901070004 | 23 | 243 | 1.6 | 1.6 | 0.00 | 0.00 | 0.00 | 93 | 1015.3 |
| 20260901064504 | 23 | 242 | 3.2 | 3.2 | 0.00 | 0.00 | 0.00 | 93 | 1015.3 |
| 20260901064004 | 23 | 243 | 1.6 | 3.2 | 0.00 | 0.00 | 0.00 | 93 | 1015.3 |
| 20260901063504 | 23 | 243 | 1.6 | 1.6 | 0.00 | 0.00 | 0.00 | 93 | 1015.3 |
| 20260901062504 | 23 | 243 | 1.6 | 3.2 | 0.00 | 0.00 | 0.00 | 93 | 1015.4 |
| 20260901062003 | 23 | 243 | 1.6 | 3.2 | 0.00 | 0.00 | 0.00 | 93 | 1015.5 |
| 20260901061504 | 23 | 192 | 1.6 | 3.2 | 0.00 | 0.00 | 0.00 | 93 | 1015.5 |
| 20260901055504 | 23 | 187 | 3.2 | 4.8 | 0.00 | 0.00 | 0.00 | 93 | 1015.3 |
| 20260901054504 | 23 | 187 | 3.2 | 4.8 | 0.00 | 0.00 | 0.00 | 93 | 1015.3 |
| 20260901054004 | 23 | 187 | 3.2 | 4.8 | 0.00 | 0.00 | 0.00 | 93 | 1015.3 |
| 20260901053504 | 23 | 187 | 3.2 | 4.8 | 0.00 | 0.00 | 0.00 | 93 | 1015.1 |
| 20260901053004 | 23 | 187 | 3.2 | 4.8 | 0.00 | 0.00 | 0.00 | 93 | 1015.0 |
| 20260901052504 | 23 | 187 | 3.2 | 4.8 | 0.00 | 0.00 | 0.00 | 93 | 1015.0 |
| 20260901052004 | 23 | 217 | 3.2 | 4.8 | 0.00 | 0.00 | 0.00 | 93 | 1015.1 |
| 20260901051504 | 23 | 216 | 1.6 | 3.2 | 0.00 | 0.00 | 0.00 | 93 | 1015.2 |
| 20260901050504 | 24 | 217 | 1.6 | 1.6 | 0.00 | 0.00 | 0.00 | 92 | 1015.1 |
| 20260901050004 | 24 | 217 | 1.6 | 3.2 | 0.00 | 0.00 | 0.00 | 92 | 1014.9 |
| 20260901045504 | 24 | 217 | 1.6 | 3.2 | 0.00 | 0.00 | 0.00 | 92 | 1014.9 |
| 20260901045004 | 24 | 169 | 1.6 | 1.6 | 0.00 | 0.00 | 0.00 | 93 | 1014.9 |
| 20260901043006 | 23 | 169 | 0.0 | 1.6 | 0.00 | 0.00 | 0.00 | 93 | 1014.8 |
| 20260901042006 | 23 | 169 | 1.6 | 3.2 | 0.00 | 0.00 | 0.00 | 93 | 1014.8 |
| 20260901040506 | 24 | 160 | 3.2 | 3.2 | 0.00 | 0.00 | 0.00 | 92 | 1014.8 |
| 20260901040006 | 24 | 158 | 1.6 | 4.8 | 0.00 | 0.00 | 0.00 | 92 | 1014.7 |
| 20260901035506 | 24 | 158 | 3.2 | 4.8 | 0.00 | 0.00 | 0.00 | 93 | 1014.7 |
| 20260901034006 | 24 | 147 | 1.6 | 3.2 | 0.00 | 0.00 | 0.00 | 93 | 1014.7 |
| 20260901033506 | 24 | 147 | 1.6 | 3.2 | 0.00 | 0.00 | 0.00 | 93 | 1014.8 |
| 20260901032506 | 24 | 147 | 1.6 | 1.6 | 0.00 | 0.00 | 0.00 | 93 | 1014.9 |
| 20260901032006 | 25 | 147 | 0.0 | 3.2 | 0.00 | 0.00 | 0.00 | 93 | 1015.0 |
| 20260901031505 | 25 | 147 | 1.6 | 3.2 | 0.00 | 0.00 | 0.00 | 92 | 1014.9 |
| 20260901030506 | 24 | 171 | 0.0 | 1.6 | 0.00 | 0.00 | 0.00 | 92 | 1015.1 |
| 20260901030006 | 24 | 171 | 1.6 | 3.2 | 0.00 | 0.00 | 0.00 | 92 | 1015.2 |
| 20260901025005 | 25 | 171 | 0.0 | 1.6 | 0.00 | 0.00 | 0.00 | 91 | 1014.9 |
| 20260901024506 | 25 | 171 | 1.6 | 1.6 | 0.00 | 0.00 | 0.00 | 91 | 1014.9 |
| 20260901023506 | 25 | 159 | 3.2 | 4.8 | 0.00 | 0.00 | 0.00 | 92 | 1014.7 |
| 20260901023005 | 25 | 134 | 4.8 | 4.8 | 0.00 | 0.00 | 0.00 | 92 | 1014.7 |
| 20260901021506 | 24 | 161 | 3.2 | 3.2 | 0.00 | 0.00 | 0.00 | 92 | 1014.8 |
| 20260901021005 | 24 | 161 | 1.6 | 1.6 | 0.00 | 0.00 | 0.00 | 92 | 1014.9 |
| 20260901015506 | 24 | 161 | 3.2 | 3.2 | 0.00 | 0.00 | 0.00 | 91 | 1014.6 |
| 20260901015006 | 25 | 190 | 1.6 | 3.2 | 0.00 | 0.00 | 0.00 | 90 | 1014.6 |
| 20260901014505 | 25 | 190 | 1.6 | 1.6 | 0.00 | 0.00 | 0.00 | 89 | 1014.6 |
| 20260901014005 | 25 | 190 | 0.0 | 3.2 | 0.00 | 0.00 | 0.00 | 88 | 1014.6 |
| 20260901013506 | 26 | 190 | 1.6 | 3.2 | 0.00 | 0.00 | 0.00 | 86 | 1014.6 |
| 20260901012505 | 26 | 190 | 0.0 | 3.2 | 0.00 | 0.00 | 0.00 | 87 | 1014.5 |
| 20260901012006 | 26 | 190 | 0.0 | 1.6 | 0.00 | 0.00 | 0.00 | 85 | 1014.4 |
| 20260901011505 | 26 | 190 | 1.6 | 1.6 | 0.00 | 0.00 | 0.00 | 85 | 1014.3 |
| 20260901011005 | 26 | 190 | 0.0 | 1.6 | 0.00 | 0.00 | 0.00 | 83 | 1014.2 |
| 20260901010006 | 26 | 190 | 1.6 | 3.2 | 0.00 | 0.00 | 0.00 | 83 | 1014.2 |
| 20260901005006 | 27 | 199 | 3.2 | 4.8 | 0.00 | 0.00 | 0.00 | 83 | 1014.0 |
| 20260901004505 | 27 | 173 | 4.8 | 8.0 | 0.00 | 0.00 | 0.00 | 82 | 1014.1 |
| 20260901002506 | 28 | 230 | 3.2 | 4.8 | 0.00 | 0.00 | 0.00 | 79 | 1014.1 |
| 20260901001006 | 28 | 197 | 4.8 | 4.8 | 0.00 | 0.00 | 0.00 | 77 | 1013.9 |
| 20260831233505 | 30 | 194 | 8.0 | 12.9 | 0.00 | 0.00 | 0.00 | 74 | 1013.9 |
| 20260831233006 | 30 | 191 | 8.0 | 11.3 | 0.00 | 0.00 | 0.00 | 74 | 1014.0 |
| 20260831231505 | 30 | 192 | 9.7 | 14.5 | 0.00 | 0.00 | 0.00 | 73 | 1013.9 |
| 20260831231005 | 30 | 188 | 4.8 | 11.3 | 0.00 | 0.00 | 0.00 | 72 | 1013.8 |
| 20260831225006 | 30 | 188 | 4.8 | 16.1 | 0.00 | 0.00 | 0.00 | 71 | 1013.8 |
| 20260831224505 | 30 | 195 | 9.7 | 16.1 | 0.00 | 0.00 | 0.00 | 71 | 1013.7 |
| 20260831224005 | 31 | 197 | 8.0 | 14.5 | 0.00 | 0.00 | 0.00 | 71 | 1013.7 |
| 20260831223505 | 31 | 189 | 4.8 | 14.5 | 0.00 | 0.00 | 0.00 | 71 | 1013.6 |
| 20260831223005 | 31 | 186 | 9.7 | 14.5 | 0.00 | 0.00 | 0.00 | 72 | 1013.6 |
| 20260831222005 | 30 | 193 | 6.4 | 14.5 | 0.00 | 0.00 | 0.00 | 71 | 1013.6 |
| 20260831220005 | 31 | 177 | 9.7 | 19.3 | 0.00 | 0.00 | 0.00 | 69 | 1013.4 |
| 20260831215505 | 31 | 187 | 11.3 | 19.3 | 0.00 | 0.00 | 0.00 | 68 | 1013.3 |
| 20260831213005 | 31 | 163 | 14.5 | 19.3 | 0.00 | 0.00 | 0.00 | 70 | 1013.4 |
| 20260831212005 | 31 | 169 | 8.0 | 11.3 | 0.00 | 0.00 | 0.00 | 71 | 1013.6 |
| 20260831211005 | 31 | 193 | 8.0 | 12.9 | 0.00 | 0.00 | 0.00 | 69 | 1013.7 |
| 20260831210505 | 31 | 211 | 4.8 | 9.7 | 0.00 | 0.00 | 0.00 | 69 | 1013.7 |
| 20260831205505 | 32 | 190 | 6.4 | 14.5 | 0.00 | 0.00 | 0.00 | 65 | 1013.8 |
| 20260831204504 | 32 | 196 | 4.8 | 8.0 | 0.00 | 0.03 | 0.00 | 68 | 1013.9 |